When you browse on this site, cookies collect data to enhance your experience and personalize the content and advertising you see.
Visit our Privacy Policy to learn more. By continuing to use the site, you agree to this use of cookies and data.
  • In Switzerland
  • List of Countries
  • For 7 days
  • Water Temperature
  • Satellite Maps
  • Weather Map
  • Weather Widgets
  • user-avatar
    Login

    Hourly Weather Fellbach

    Today, 26 May, Sunday

    Time Temperature Precipitation Wind Pressure Humidity
    00:00 +12°C° 0 mm 1 mps 734 mmHg 85%
    01:00 +11°C° 0 mm 1 mps 734 mmHg 88%
    02:00 +11°C° 0 mm 1 mps 734 mmHg 89%
    03:00 +11°C° 0 mm 1 mps 734 mmHg 90%
    04:00 +10°C° 0 mm 1 mps 734 mmHg 91%
    05:00 +12°C° 0 mm 1 mps 734 mmHg 87%
    06:00 +13°C° 0 mm 1 mps 734 mmHg 83%
    07:00 +14°C° 0 mm 1 mps 734 mmHg 79%
    08:00 +16°C° 0 mm 1 mps 734 mmHg 72%
    09:00 +19°C° 0 mm 1 mps 734 mmHg 65%
    10:00 +21°C° 0 mm 1 mps 734 mmHg 58%
    11:00 +21°C° 0 mm 1 mps 734 mmHg 56%
    12:00 +21°C° 0 mm 2 mps 733 mmHg 53%
    13:00 +23°C° 0 mm 2 mps 733 mmHg 50%
    14:00 +23°C° 0 mm 2 mps 733 mmHg 51%
    15:00 +23°C° 0 mm 2 mps 733 mmHg 51%
    16:00 +23°C° 0 mm 2 mps 732 mmHg 52%
    17:00 +21°C° 0 mm 2 mps 732 mmHg 58%
    18:00 +20°C° 0 mm 2 mps 732 mmHg 63%
    19:00 +19°C° 0 mm 2 mps 731 mmHg 69%
    20:00 +18°C° 0 mm 1 mps 731 mmHg 72%
    21:00 +15°C° 0 mm 1 mps 731 mmHg 76%
    22:00 +14°C° 0 mm 1 mps 732 mmHg 80%
    23:00 +13°C° 0 mm 1 mps 732 mmHg 82%

    Tomorrow, 27 May, Monday

    Time Temperature Precipitation Wind Pressure Humidity
    00:00 +13°C° 0 mm 1 mps 731 mmHg 83%
    01:00 +13°C° 0 mm 1 mps 731 mmHg 85%
    02:00 +12°C° 0 mm 1 mps 731 mmHg 86%
    03:00 +12°C° 0 mm 1 mps 731 mmHg 87%
    04:00 +11°C° 0 mm 1 mps 730 mmHg 88%
    05:00 +13°C° 0 mm 1 mps 731 mmHg 83%
    06:00 +14°C° 0 mm 1 mps 731 mmHg 79%
    07:00 +15°C° 0 mm 1 mps 731 mmHg 74%
    08:00 +18°C° 0 mm 1 mps 731 mmHg 70%
    09:00 +18°C° 0 mm 2 mps 731 mmHg 66%
    10:00 +20°C° 0 mm 2 mps 731 mmHg 62%
    11:00 +20°C° 0.3 mm 2 mps 730 mmHg 65%
    12:00 +20°C° 0.3 mm 3 mps 730 mmHg 67%
    13:00 +20°C° 0.3 mm 3 mps 729 mmHg 70%
    14:00 +20°C° 0.4 mm 3 mps 729 mmHg 73%
    15:00 +19°C° 0.4 mm 3 mps 729 mmHg 76%
    16:00 +19°C° 0.4 mm 3 mps 729 mmHg 80%
    17:00 +18°C° 0.2 mm 2 mps 728 mmHg 81%
    18:00 +18°C° 0.2 mm 2 mps 728 mmHg 83%
    19:00 +17°C° 0.2 mm 2 mps 728 mmHg 85%
    20:00 +16°C° 0 mm 2 mps 728 mmHg 86%
    21:00 +16°C° 0 mm 2 mps 728 mmHg 87%
    22:00 +15°C° 0 mm 1 mps 729 mmHg 88%
    23:00 +14°C° 0 mm 1 mps 728 mmHg 90%

    Day after tomorrow, 28 May, Tuesday

    Time Temperature Precipitation Wind Pressure Humidity
    00:00 +14°C° 0 mm 2 mps 728 mmHg 91%
    01:00 +13°C° 0 mm 2 mps 728 mmHg 92%
    02:00 +13°C° 0 mm 2 mps 728 mmHg 93%
    03:00 +12°C° 0 mm 2 mps 728 mmHg 94%
    04:00 +12°C° 0 mm 2 mps 728 mmHg 96%
    05:00 +12°C° 0 mm 2 mps 728 mmHg 93%
    06:00 +13°C° 0 mm 2 mps 728 mmHg 91%
    07:00 +12°C° 0 mm 3 mps 728 mmHg 88%
    08:00 +13°C° 0.2 mm 3 mps 728 mmHg 84%
    09:00 +14°C° 0.2 mm 3 mps 728 mmHg 80%
    10:00 +14°C° 0.2 mm 4 mps 728 mmHg 76%
    11:00 +15°C° 0.2 mm 4 mps 728 mmHg 69%
    12:00 +17°C° 0.2 mm 4 mps 728 mmHg 61%
    13:00 +18°C° 0.2 mm 4 mps 728 mmHg 54%
    14:00 +18°C° 0.1 mm 4 mps 728 mmHg 55%
    15:00 +18°C° 0.1 mm 4 mps 728 mmHg 56%
    16:00 +18°C° 0.1 mm 4 mps 728 mmHg 57%
    17:00 +17°C° 0.1 mm 4 mps 728 mmHg 62%
    18:00 +16°C° 0.1 mm 3 mps 728 mmHg 67%
    19:00 +14°C° 0.1 mm 3 mps 728 mmHg 73%
    20:00 +13°C° 0 mm 3 mps 729 mmHg 76%
    21:00 +11°C° 0 mm 3 mps 729 mmHg 79%
    22:00 +10°C° 0 mm 2 mps 730 mmHg 83%
    23:00 +10°C° 0 mm 3 mps 730 mmHg 85%

    29 May, Wednesday

    Time Temperature Precipitation Wind Pressure Humidity
    00:00 +9°C° 0 mm 3 mps 730 mmHg 87%
    01:00 +9°C° 0 mm 3 mps 730 mmHg 90%
    02:00 +8°C° 0 mm 3 mps 731 mmHg 91%
    03:00 +8°C° 0 mm 3 mps 731 mmHg 93%
    04:00 +8°C° 0 mm 2 mps 731 mmHg 94%
    05:00 +9°C° 0 mm 3 mps 732 mmHg 91%
    06:00 +9°C° 0 mm 3 mps 732 mmHg 88%
    07:00 +10°C° 0 mm 3 mps 732 mmHg 85%
    08:00 +11°C° 0.1 mm 3 mps 733 mmHg 81%
    09:00 +12°C° 0.1 mm 3 mps 733 mmHg 78%
    10:00 +13°C° 0.1 mm 3 mps 733 mmHg 74%
    11:00 +14°C° 0.4 mm 3 mps 734 mmHg 73%
    12:00 +14°C° 0.4 mm 3 mps 734 mmHg 71%
    13:00 +16°C° 0.4 mm 3 mps 734 mmHg 70%
    14:00 +16°C° 0.5 mm 3 mps 734 mmHg 70%
    15:00 +16°C° 0.5 mm 3 mps 734 mmHg 71%
    16:00 +16°C° 0.5 mm 3 mps 734 mmHg 71%
    17:00 +16°C° 0.4 mm 2 mps 735 mmHg 74%
    18:00 +15°C° 0.4 mm 1 mps 735 mmHg 77%
    19:00 +15°C° 0.4 mm 1 mps 735 mmHg 80%
    20:00 +13°C° 0 mm 1 mps 736 mmHg 82%
    21:00 +11°C° 0 mm 0 mps 736 mmHg 84%
    22:00 +9°C° 0 mm 0 mps 737 mmHg 86%
    23:00 +9°C° 0 mm 0 mps 737 mmHg 87%

    30 May, Thursday

    Time Temperature Precipitation Wind Pressure Humidity
    00:00 +10°C° 0 mm 1 mps 738 mmHg 89%
    01:00 +9°C° 0 mm 1 mps 738 mmHg 90%
    02:00 +9°C° 0 mm 1 mps 738 mmHg 90%
    03:00 +9°C° 0 mm 1 mps 738 mmHg 91%
    04:00 +8°C° 0 mm 1 mps 739 mmHg 91%
    05:00 +10°C° 0 mm 1 mps 739 mmHg 89%
    06:00 +11°C° 0 mm 1 mps 739 mmHg 87%
    07:00 +12°C° 0 mm 1 mps 739 mmHg 85%
    08:00 +14°C° 0.1 mm 1 mps 740 mmHg 78%
    09:00 +16°C° 0.1 mm 1 mps 740 mmHg 70%
    10:00 +17°C° 0.1 mm 2 mps 740 mmHg 63%
    11:00 +18°C° 0.2 mm 2 mps 740 mmHg 60%
    12:00 +19°C° 0.2 mm 2 mps 740 mmHg 56%
    13:00 +20°C° 0.2 mm 2 mps 740 mmHg 53%
    14:00 +20°C° 0.1 mm 3 mps 740 mmHg 53%
    15:00 +20°C° 0.1 mm 3 mps 739 mmHg 54%
    16:00 +20°C° 0.1 mm 3 mps 739 mmHg 55%
    17:00 +19°C° 0 mm 3 mps 740 mmHg 59%
    18:00 +18°C° 0 mm 3 mps 740 mmHg 63%
    19:00 +17°C° 0 mm 2 mps 740 mmHg 68%
    20:00 +16°C° 0 mm 2 mps 740 mmHg 72%
    21:00 +14°C° 0 mm 2 mps 741 mmHg 77%
    22:00 +13°C° 0 mm 2 mps 741 mmHg 81%
    23:00 +12°C° 0 mm 2 mps 741 mmHg 83%

    31 May, Friday

    Time Temperature Precipitation Wind Pressure Humidity
    00:00 +12°C° 0 mm 2 mps 741 mmHg 86%
    01:00 +10°C° 0 mm 2 mps 741 mmHg 88%
    02:00 +12°C° 0.1 mm 2 mps 741 mmHg 87%
    03:00 +12°C° 0.1 mm 2 mps 741 mmHg 86%
    04:00 +12°C° 0.1 mm 2 mps 741 mmHg 85%
    05:00 +12°C° 0.6 mm 2 mps 741 mmHg 87%
    06:00 +12°C° 0.6 mm 2 mps 742 mmHg 89%
    07:00 +12°C° 0.6 mm 2 mps 742 mmHg 91%
    08:00 +13°C° 0.1 mm 2 mps 742 mmHg 89%
    09:00 +13°C° 0.1 mm 3 mps 742 mmHg 88%
    10:00 +14°C° 0.1 mm 3 mps 742 mmHg 86%
    11:00 +16°C° 0.1 mm 3 mps 742 mmHg 84%
    12:00 +17°C° 0.1 mm 3 mps 742 mmHg 81%
    13:00 +18°C° 0.1 mm 4 mps 742 mmHg 78%
    14:00 +18°C° 0.1 mm 3 mps 742 mmHg 76%
    15:00 +19°C° 0.1 mm 3 mps 742 mmHg 74%
    16:00 +19°C° 0.1 mm 3 mps 742 mmHg 72%
    17:00 +19°C° 0.1 mm 2 mps 742 mmHg 77%
    18:00 +19°C° 0.1 mm 2 mps 742 mmHg 81%
    19:00 +19°C° 0.1 mm 1 mps 742 mmHg 85%
    20:00 +18°C° 0 mm 1 mps 742 mmHg 88%
    21:00 +16°C° 0 mm 1 mps 742 mmHg 91%
    22:00 +15°C° 0 mm 1 mps 742 mmHg 93%
    23:00 +15°C° 0 mm 1 mps 742 mmHg 94%
    Show more